Weather History for LEPA - September, 2013

Change the Weather History Date:

Wednesday, September 18, 2013

  Actual Average Record
Temperature  
Mean Temperature 70 °F -  
Max Temperature 81 °F 75 °F 86 °F (2002)
Min Temperature 60 °F 57 °F 55 °F (2004)
Cooling Degree Days 6    
Growing Degree Days 20 (Base 50)    
Moisture  
Dew Point 62 °F    
Average Humidity 75    
Maximum Humidity 100    
Minimum Humidity 46    
Precipitation  
Precipitation 0.00 in 0.08 in - ()
Sea Level Pressure  
Sea Level Pressure 29.94 in    
Wind  
Wind Speed 4 mph ()    
Max Wind Speed 16 mph    
Max Gust Speed -    
Visibility 6.8 miles    
Events Fog    
Averages and records for this station are not official NWS values.
T = Trace of Precipitation, MM = Missing Value Source: Averaged Metar Reports

Daily Weather History Graph

Daily Weather History Graph

Search for Another Location

Airport or City:

Trip Planner

Search our weather history database for the weather conditions in past years. The results will help you decide how hot, cold, wet, or windy it might be!

Date:

Astronomy

Sep. 18, 2013 Rise Set
Actual Time 7:32 AM CEST 7:52 PM CEST
Civil Twilight 7:06 AM CEST 8:19 PM CEST
Nautical Twilight 6:34 AM CEST 8:51 PM CEST
Astronomical Twilight 6:02 AM CEST 9:23 PM CEST
Moon 7:06 PM CEST (9/18) 6:18 AM CEST (9/18)
Length of Visible Light 13h 13m
Length of Day
12h 19m
Waxing Gibbous, 99% of the Moon is Illuminated
Sep 18
Waxing Gibbous
Sep 19
Full
Sep 27
Last Quarter
Oct 5
New
Oct 12
First Quarter

Hourly Weather History & Observations

Time (CEST) Temp. Heat Index Dew Point Humidity Pressure Visibility Wind Dir Wind Speed Gust Speed Precip Events Conditions
12:00 AM 68.0 °F - 62.6 °F 83% 29.98 in 6.2 mi Calm Calm - N/A   Scattered Clouds
12:30 AM 66.2 °F - 62.6 °F 88% 29.98 in 6.2 mi North 1.2 mph - N/A   Scattered Clouds
1:00 AM 66.2 °F - 62.6 °F 88% 29.98 in 6.2 mi East 2.3 mph - N/A   Scattered Clouds
2:00 AM 65 °F - 62 °F 87% 29.98 in 9 mi Calm Calm - -   Mostly Cloudy
2:00 AM 66.2 °F - 62.6 °F 88% 29.98 in 6.2 mi NE 1.2 mph - N/A   Scattered Clouds
2:30 AM 66.2 °F - 62.6 °F 88% 29.98 in 6.2 mi Calm Calm - N/A   Scattered Clouds
3:00 AM 66.2 °F - 62.6 °F 88% 29.95 in 6.2 mi Variable 1.2 mph - N/A   Scattered Clouds
3:30 AM 64.4 °F - 62.6 °F 94% 29.95 in 6.2 mi Calm Calm - N/A   Partly Cloudy
4:00 AM 64.4 °F - 62.6 °F 94% 29.95 in 6.2 mi Calm Calm - N/A   Partly Cloudy
4:30 AM 64.4 °F - 60.8 °F 88% 29.95 in 6.2 mi Calm Calm - N/A   Partly Cloudy
5:00 AM 62.6 °F - 60.8 °F 94% 29.95 in 6.2 mi North 1.2 mph - N/A   Partly Cloudy
5:30 AM 62.6 °F - 60.8 °F 94% 29.95 in 6.2 mi Calm Calm - N/A   Partly Cloudy
6:00 AM 62.6 °F - 60.8 °F 94% 29.95 in 6.2 mi NE 3.5 mph - N/A   Partly Cloudy
6:30 AM 62.6 °F - 60.8 °F 94% 29.95 in 6.2 mi Calm Calm - N/A   Partly Cloudy
7:00 AM 62.6 °F - 60.8 °F 94% 29.95 in 6.2 mi Calm Calm - N/A   Partly Cloudy
7:30 AM 60.8 °F - 59.0 °F 94% 29.95 in 6.2 mi Calm Calm - N/A   Partly Cloudy
8:00 AM 62 °F - 60 °F 90% 29.96 in 19 mi ENE 1.2 mph - -   Scattered Clouds
8:00 AM 60.8 °F - 60.8 °F 100% 29.95 in 6.2 mi East 1.2 mph - N/A Fog Partly Cloudy
8:30 AM 62.6 °F - 62.6 °F 100% 29.95 in 6.2 mi Calm Calm - N/A   Partly Cloudy
9:00 AM 66.2 °F - 64.4 °F 94% 29.95 in 6.2 mi Calm Calm - N/A   Partly Cloudy
9:30 AM 69.8 °F - 64.4 °F 83% 29.95 in 6.2 mi Calm Calm - N/A   Partly Cloudy
10:00 AM 73.4 °F - 66.2 °F 78% 29.95 in 6.2 mi Calm Calm - N/A   Partly Cloudy
10:30 AM 75.2 °F - 64.4 °F 69% 29.95 in 6.2 mi Variable 1.2 mph - N/A   Partly Cloudy
11:00 AM 77.0 °F - 62.6 °F 61% 29.95 in 6.2 mi SW 5.8 mph - N/A   Partly Cloudy
11:30 AM 77.0 °F - 64.4 °F 65% 29.95 in 6.2 mi SW 8.1 mph - N/A   Partly Cloudy
12:00 PM 78.8 °F - 66.2 °F 65% 29.95 in 6.2 mi SW 9.2 mph - N/A   Scattered Clouds
12:30 PM 78.8 °F - 66.2 °F 65% 29.95 in 6.2 mi SW 11.5 mph - N/A   Scattered Clouds
1:00 PM 80.6 °F 82.7 °F 66.2 °F 61% 29.95 in 6.2 mi SW 12.7 mph - N/A   Scattered Clouds
1:30 PM 78.8 °F - 66.2 °F 65% 29.95 in 6.2 mi SW 13.8 mph - N/A   Scattered Clouds
2:00 PM 81 °F - 64 °F 46% 29.95 in 19 mi SW 16.1 mph - -   Partly Cloudy
2:00 PM 80.6 °F 82.3 °F 64.4 °F 58% 29.95 in 6.2 mi SW 13.8 mph - N/A   Scattered Clouds
2:30 PM 80.6 °F 82.3 °F 64.4 °F 58% 29.92 in 6.2 mi SW 13.8 mph - N/A   Partly Cloudy
3:00 PM 80.6 °F 82.3 °F 64.4 °F 58% 29.92 in 6.2 mi SW 13.8 mph - N/A   Partly Cloudy
3:30 PM 80.6 °F 82.7 °F 66.2 °F 61% 29.92 in 6.2 mi WSW 15.0 mph - N/A   Partly Cloudy
4:00 PM 80.6 °F 82.3 °F 64.4 °F 58% 29.92 in 6.2 mi WSW 15.0 mph - N/A   Partly Cloudy
4:30 PM 80.6 °F 81.5 °F 60.8 °F 51% 29.92 in 6.2 mi WSW 13.8 mph - N/A   Partly Cloudy
5:00 PM 80.6 °F 81.8 °F 62.6 °F 54% 29.89 in 6.2 mi WSW 13.8 mph - N/A   Partly Cloudy
5:30 PM 80.6 °F 81.8 °F 62.6 °F 54% 29.89 in 6.2 mi WSW 12.7 mph - N/A   Partly Cloudy
6:00 PM 80.6 °F 81.5 °F 60.8 °F 51% 29.89 in 6.2 mi WSW 13.8 mph - N/A   Partly Cloudy
6:30 PM 78.8 °F - 60.8 °F 54% 29.89 in 6.2 mi WSW 13.8 mph - N/A   Partly Cloudy
7:00 PM 78.8 °F - 60.8 °F 54% 29.89 in 6.2 mi West 11.5 mph - N/A   Partly Cloudy
7:30 PM 77.0 °F - 62.6 °F 61% 29.89 in 6.2 mi West 9.2 mph - N/A   Partly Cloudy
8:00 PM 75.2 °F - 62.6 °F 65% 29.89 in 6.2 mi WNW 4.6 mph - N/A   Partly Cloudy
8:30 PM 73.4 °F - 60.8 °F 65% 29.89 in 6.2 mi WNW 3.5 mph - N/A   Partly Cloudy
9:00 PM 73.4 °F - 62.6 °F 69% 29.89 in 6.2 mi West 5.8 mph - N/A   Partly Cloudy
9:30 PM 71.6 °F - 59.0 °F 64% 29.92 in 6.2 mi West 3.5 mph - N/A   Partly Cloudy
10:00 PM 68.0 °F - 59.0 °F 73% 29.92 in 6.2 mi NNE 2.3 mph - N/A   Partly Cloudy
10:30 PM 68.0 °F - 59.0 °F 73% 29.92 in 6.2 mi Calm Calm - N/A   Partly Cloudy
11:00 PM 66.2 °F - 59.0 °F 78% 29.92 in 6.2 mi Calm Calm - N/A   Partly Cloudy
11:30 PM 66.2 °F - 59.0 °F 78% 29.92 in 6.2 mi Calm Calm - N/A   Partly Cloudy